{"data":{"norad_id":60364,"epoch":"2026-05-24T21:30:52.117056Z","epoch_age_seconds":81178,"freshness":"FRESH","line1":"1 60364U 24138K   26144.89643654  .00000667  00000+0  34650-4 0  9999","line2":"2 60364  53.1614 315.7417 0001218  79.5347 280.5791 15.30197749102197","mean_motion":15.30197749,"eccentricity":0.0001218,"inclination_deg":53.1614,"raan_deg":315.7417,"arg_perigee_deg":79.5347,"mean_anomaly_deg":280.5791,"bstar":3.465e-5,"rev_number":10219,"period_min":94.105484140272,"perigee_km":474.38705140713,"apogee_km":476.0565296085,"semimajor_km":6853.3587905078,"source":"CELESTRAK","updated_at":"2026-05-25T13:38:19.239533Z"}}